EWG96D HEGN-EDDL

Flight info

Callsign EWG96D
Flight time 4h 58m
Altitude 34000
Route BOTIX1B BOTIX V608 NABED T55 KUNKI P751 METRU DCT DIMIS DCT VRANA DCT NIVES DCT GORPA DCT SIMBA DCT TESDU DCT AMETU T852 TINSA T854 DOMUX DOMUX1A
Aircraft A319/M-SDE3FGHIRWY/LB1

Departure

Time 2026-05-06 07:04
Airport Hurghada International Airport (HEGN)

Arrival

Time 2026-05-06 12:02
Airport Düsseldorf Airport (EDDL)
Time Latitude Longitude Altitude Speed Heading
2026-05-06 06:33 27.17711 33.80679 58 ft 0 kts 75°
2026-05-06 06:54 27.17705 33.80653 56 ft 4 kts 79°
2026-05-06 06:55 27.17701 33.80624 58 ft 4 kts 86°
2026-05-06 06:55 27.17702 33.80593 58 ft 4 kts 101°
2026-05-06 06:55 27.17710 33.80568 58 ft 4 kts 142°
2026-05-06 06:55 27.17718 33.80562 58 ft 0 kts 165°
2026-05-06 06:58 27.17709 33.80565 54 ft 2 kts 165°
2026-05-06 06:58 27.17689 33.80571 52 ft 4 kts 165°
2026-05-06 06:58 27.17657 33.80580 53 ft 5 kts 165°
2026-05-06 06:58 27.17616 33.80593 52 ft 7 kts 165°
2026-05-06 06:59 27.17567 33.80608 58 ft 8 kts 165°
2026-05-06 06:59 27.17509 33.80609 58 ft 9 kts 202°
2026-05-06 06:59 27.17479 33.80552 58 ft 9 kts 255°
2026-05-06 06:59 27.17461 33.80477 50 ft 11 kts 255°
2026-05-06 07:00 27.17403 33.80404 51 ft 16 kts 177°
2026-05-06 07:00 27.17293 33.80437 51 ft 16 kts 163°
2026-05-06 07:00 27.17180 33.80470 50 ft 17 kts 166°
2026-05-06 07:00 27.17065 33.80505 48 ft 17 kts 164°
2026-05-06 07:01 27.16956 33.80537 50 ft 16 kts 166°
2026-05-06 07:01 27.16845 33.80569 47 ft 17 kts 165°
2026-05-06 07:01 27.16724 33.80606 48 ft 18 kts 165°
2026-05-06 07:01 27.16603 33.80643 46 ft 18 kts 165°
2026-05-06 07:02 27.16484 33.80680 47 ft 18 kts 165°
2026-05-06 07:02 27.16354 33.80719 45 ft 20 kts 165°
2026-05-06 07:02 27.16227 33.80754 40 ft 15 kts 167°
2026-05-06 07:02 27.16153 33.80748 39 ft 11 kts 233°
2026-05-06 07:03 27.16133 33.80671 39 ft 10 kts 255°
2026-05-06 07:03 27.16154 33.80604 42 ft 12 kts 329°
2026-05-06 07:03 27.16413 33.80521 46 ft 74 kts 345°
2026-05-06 07:03 27.17140 33.80304 51 ft 139 kts 345°
2026-05-06 07:04 27.18127 33.80021 519 ft 144 kts 343°
2026-05-06 07:04 27.19088 33.79708 1165 ft 143 kts 342°
2026-05-06 07:04 27.20042 33.79388 1789 ft 142 kts 341°
2026-05-06 07:04 27.21015 33.79063 2035 ft 155 kts 342°
2026-05-06 07:05 27.22125 33.78693 2218 ft 178 kts 343°
2026-05-06 07:05 27.23387 33.78276 2392 ft 201 kts 343°
2026-05-06 07:05 27.24801 33.77815 2580 ft 226 kts 344°
2026-05-06 07:05 27.26384 33.77303 2951 ft 246 kts 344°
2026-05-06 07:06 27.28061 33.76761 3683 ft 253 kts 344°
2026-05-06 07:06 27.29776 33.76208 4501 ft 259 kts 344°
2026-05-06 07:06 27.31445 33.75403 5211 ft 266 kts 323°
2026-05-06 07:06 27.32634 33.73803 5904 ft 273 kts 294°
2026-05-06 07:07 27.33001 33.71711 6620 ft 278 kts 266°
2026-05-06 07:07 27.32509 33.69603 7374 ft 281 kts 250°
2026-05-06 07:07 27.31866 33.67519 8151 ft 282 kts 251°
2026-05-06 07:07 27.31244 33.65419 8899 ft 284 kts 252°
2026-05-06 07:08 27.30837 33.64019 9387 ft 285 kts 252°
2026-05-06 07:08 27.30216 33.61890 10118 ft 287 kts 252°
2026-05-06 07:08 27.29572 33.59693 10382 ft 307 kts 252°
2026-05-06 07:08 27.28881 33.57334 10510 ft 328 kts 252°
2026-05-06 07:09 27.28145 33.54828 10696 ft 345 kts 252°
2026-05-06 07:09 27.27384 33.52245 11176 ft 351 kts 252°
2026-05-06 07:09 27.26611 33.49631 11781 ft 353 kts 252°
2026-05-06 07:09 27.25834 33.47011 12387 ft 354 kts 252°
2026-05-06 07:10 27.25055 33.44379 12962 ft 356 kts 252°
2026-05-06 07:10 27.24273 33.41727 13510 ft 358 kts 252°
2026-05-06 07:10 27.23487 33.39065 14034 ft 360 kts 252°
2026-05-06 07:10 27.22697 33.36385 14561 ft 362 kts 252°
2026-05-06 07:11 27.22069 33.33639 15065 ft 364 kts 262°
2026-05-06 07:11 27.21935 33.30792 15562 ft 367 kts 272°
2026-05-06 07:11 27.22163 33.27929 16068 ft 369 kts 275°
2026-05-06 07:11 27.22403 33.25043 16604 ft 371 kts 274°
2026-05-06 07:12 27.22643 33.22139 17095 ft 375 kts 274°
2026-05-06 07:12 27.22884 33.19216 17594 ft 377 kts 274°
2026-05-06 07:12 27.23125 33.16271 18108 ft 379 kts 274°
2026-05-06 07:12 27.23361 33.13355 18591 ft 381 kts 274°
2026-05-06 07:13 27.23603 33.10342 19064 ft 384 kts 274°
2026-05-06 07:13 27.23846 33.07348 19529 ft 386 kts 274°
2026-05-06 07:13 27.24091 33.04336 19972 ft 388 kts 274°
2026-05-06 07:13 27.24336 33.01304 20402 ft 391 kts 274°
2026-05-06 07:14 27.24576 32.98294 20821 ft 393 kts 274°
2026-05-06 07:14 27.24819 32.95228 21220 ft 395 kts 274°
2026-05-06 07:14 27.25066 32.92143 21600 ft 398 kts 274°
2026-05-06 07:14 27.25316 32.89039 21963 ft 400 kts 274°
2026-05-06 07:15 27.25568 32.85910 22321 ft 402 kts 274°
2026-05-06 07:15 27.25818 32.82772 22665 ft 404 kts 274°
2026-05-06 07:15 27.26069 32.79618 22996 ft 406 kts 274°
2026-05-06 07:15 27.26319 32.76448 23321 ft 408 kts 274°
2026-05-06 07:16 27.26572 32.73262 23657 ft 410 kts 274°
2026-05-06 07:16 27.26827 32.70067 23985 ft 412 kts 274°
2026-05-06 07:16 27.27082 32.66844 24300 ft 414 kts 274°
2026-05-06 07:16 27.27335 32.63615 24603 ft 416 kts 274°
2026-05-06 07:17 27.27587 32.60369 24909 ft 417 kts 273°
2026-05-06 07:17 27.27839 32.57106 25213 ft 419 kts 274°
2026-05-06 07:17 27.28092 32.53837 25512 ft 421 kts 273°
2026-05-06 07:17 27.28342 32.50592 25816 ft 422 kts 273°
2026-05-06 07:18 27.28594 32.47300 26083 ft 424 kts 273°
2026-05-06 07:18 27.28848 32.43985 26351 ft 426 kts 274°
2026-05-06 07:18 27.29105 32.40664 26611 ft 427 kts 274°
2026-05-06 07:18 27.29361 32.37331 26884 ft 428 kts 273°
2026-05-06 07:19 27.29619 32.33989 27136 ft 430 kts 274°
2026-05-06 07:19 27.30164 32.30665 27365 ft 434 kts 284°
2026-05-06 07:19 27.31225 32.27479 27611 ft 438 kts 293°
2026-05-06 07:19 27.32788 32.24507 27845 ft 444 kts 303°
2026-05-06 07:20 27.34671 32.21749 28071 ft 446 kts 304°
2026-05-06 07:20 27.36578 32.18977 28298 ft 448 kts 304°
2026-05-06 07:20 27.38483 32.16200 28508 ft 449 kts 304°
2026-05-06 07:20 27.40390 32.13411 28756 ft 450 kts 304°
2026-05-06 07:21 27.42294 32.10621 29072 ft 449 kts 304°
2026-05-06 07:21 27.44195 32.07836 29382 ft 448 kts 304°
2026-05-06 07:21 27.46094 32.05059 29708 ft 447 kts 304°
2026-05-06 07:21 27.47989 32.02288 30028 ft 446 kts 304°
2026-05-06 07:22 27.49881 31.99522 30317 ft 446 kts 304°
2026-05-06 07:22 27.51750 31.96788 30615 ft 445 kts 304°
2026-05-06 07:22 27.53634 31.94028 30925 ft 444 kts 304°
2026-05-06 07:22 27.55513 31.91272 31218 ft 443 kts 304°
2026-05-06 07:23 27.57391 31.88508 31509 ft 443 kts 304°
2026-05-06 07:23 27.59266 31.85746 31802 ft 442 kts 303°
2026-05-06 07:23 27.61137 31.82988 32098 ft 441 kts 303°
2026-05-06 07:23 27.63000 31.80241 32383 ft 441 kts 303°
2026-05-06 07:24 27.64858 31.77505 32657 ft 440 kts 303°
2026-05-06 07:24 27.66723 31.74762 32926 ft 439 kts 303°
2026-05-06 07:24 27.68582 31.72026 33194 ft 439 kts 303°
2026-05-06 07:24 27.70439 31.69291 33462 ft 439 kts 303°
2026-05-06 07:25 27.72290 31.66559 33718 ft 438 kts 302°
2026-05-06 07:25 27.74112 31.63864 33974 ft 437 kts 302°
2026-05-06 07:25 27.75982 31.61098 34111 ft 437 kts 302°
2026-05-06 07:26 27.79636 31.55699 34136 ft 434 kts 302°
2026-05-06 07:26 27.83304 31.50277 34138 ft 434 kts 303°
2026-05-06 07:27 27.86956 31.44855 34138 ft 433 kts 302°
2026-05-06 07:27 27.90605 31.39425 34148 ft 433 kts 302°
2026-05-06 07:28 27.94249 31.34001 34157 ft 433 kts 302°
2026-05-06 07:28 27.99721 31.25857 34156 ft 433 kts 302°
2026-05-06 07:29 28.03355 31.20437 34154 ft 432 kts 303°
2026-05-06 07:29 28.06968 31.15042 34153 ft 432 kts 302°
2026-05-06 07:30 28.10420 31.09487 34153 ft 430 kts 300°
2026-05-06 07:30 28.13683 31.03825 34154 ft 429 kts 299°
2026-05-06 07:31 28.16943 30.98167 34154 ft 429 kts 300°
2026-05-06 07:31 28.20253 30.92533 34158 ft 429 kts 300°
2026-05-06 07:32 28.23571 30.86908 34160 ft 428 kts 300°
2026-05-06 07:32 28.26883 30.81287 34163 ft 428 kts 300°
2026-05-06 07:33 28.30159 30.75701 34165 ft 428 kts 300°
2026-05-06 07:33 28.33457 30.70060 34163 ft 428 kts 300°
2026-05-06 07:34 28.36748 30.64432 34161 ft 428 kts 300°
2026-05-06 07:34 28.40043 30.58803 34159 ft 428 kts 300°
2026-05-06 07:35 28.43335 30.53167 34157 ft 427 kts 300°
2026-05-06 07:35 28.46595 30.47561 34153 ft 427 kts 300°
2026-05-06 07:36 28.49874 30.41922 34152 ft 428 kts 300°
2026-05-06 07:36 28.53163 30.36276 34151 ft 428 kts 300°
2026-05-06 07:37 28.56452 30.30631 34153 ft 428 kts 300°
2026-05-06 07:37 28.59727 30.24978 34153 ft 428 kts 300°
2026-05-06 07:38 28.62998 30.19320 34155 ft 428 kts 300°
2026-05-06 07:38 28.66272 30.13648 34155 ft 428 kts 300°
2026-05-06 07:39 28.69538 30.07982 34155 ft 428 kts 300°
2026-05-06 07:39 28.72800 30.02320 34154 ft 427 kts 300°
2026-05-06 07:40 28.76064 29.96654 34153 ft 427 kts 300°
2026-05-06 07:40 28.79297 29.91036 34158 ft 426 kts 300°
2026-05-06 07:41 28.82546 29.85387 34159 ft 426 kts 300°
2026-05-06 07:41 28.85786 29.79728 34159 ft 425 kts 300°
2026-05-06 07:42 28.89012 29.74093 34159 ft 424 kts 300°
2026-05-06 07:42 28.92242 29.68445 34159 ft 424 kts 300°
2026-05-06 07:43 28.95458 29.62807 34160 ft 423 kts 300°
2026-05-06 07:43 28.98676 29.57178 34159 ft 423 kts 300°
2026-05-06 07:44 29.01867 29.51581 34154 ft 422 kts 300°
2026-05-06 07:44 29.05065 29.45945 34149 ft 422 kts 300°
2026-05-06 07:45 29.08258 29.40315 34149 ft 421 kts 300°
2026-05-06 07:45 29.11493 29.34731 34145 ft 423 kts 305°
2026-05-06 07:46 29.15789 29.30087 34145 ft 429 kts 319°
2026-05-06 07:46 29.20558 29.25981 34142 ft 429 kts 319°
2026-05-06 07:47 29.25310 29.21859 34139 ft 428 kts 319°
2026-05-06 07:47 29.30065 29.17727 34140 ft 428 kts 319°
2026-05-06 07:48 29.34813 29.13598 34144 ft 428 kts 319°
2026-05-06 07:48 29.39551 29.09476 34146 ft 428 kts 319°
2026-05-06 07:49 29.44290 29.05344 34144 ft 427 kts 319°
2026-05-06 07:49 29.49022 29.01210 34144 ft 427 kts 319°
2026-05-06 07:50 29.53725 28.97098 34145 ft 427 kts 319°
2026-05-06 07:50 29.58441 28.92962 34143 ft 427 kts 319°
2026-05-06 07:51 29.63153 28.88818 34142 ft 426 kts 319°
2026-05-06 07:51 29.67870 28.84677 34143 ft 426 kts 319°
2026-05-06 07:52 29.72588 28.80534 34142 ft 426 kts 319°
2026-05-06 07:52 29.76500 28.77087 34144 ft 426 kts 319°
2026-05-06 07:53 29.81209 28.72937 34145 ft 426 kts 319°
2026-05-06 07:53 29.85909 28.68791 34138 ft 425 kts 319°
2026-05-06 07:54 29.90609 28.64640 34134 ft 425 kts 319°
2026-05-06 07:54 29.95297 28.60486 34130 ft 425 kts 319°
2026-05-06 07:55 29.99979 28.56328 34127 ft 425 kts 319°
2026-05-06 07:55 30.04669 28.52169 34135 ft 425 kts 319°
2026-05-06 07:56 30.09333 28.48032 34139 ft 424 kts 319°
2026-05-06 07:56 30.14007 28.43877 34136 ft 424 kts 319°
2026-05-06 07:57 30.18681 28.39716 34138 ft 423 kts 319°
2026-05-06 07:57 30.23342 28.35560 34138 ft 423 kts 319°
2026-05-06 07:58 30.28003 28.31413 34138 ft 422 kts 319°
2026-05-06 07:58 30.32657 28.27260 34136 ft 422 kts 319°
2026-05-06 07:59 30.37306 28.23092 34135 ft 422 kts 319°
2026-05-06 07:59 30.41954 28.18925 34135 ft 423 kts 319°
2026-05-06 08:00 30.46580 28.14780 34134 ft 422 kts 319°
2026-05-06 08:00 30.51225 28.10604 34135 ft 422 kts 319°
2026-05-06 08:01 30.55871 28.06429 34138 ft 422 kts 319°
2026-05-06 08:01 30.60520 28.02253 34140 ft 422 kts 319°
2026-05-06 08:02 30.65152 27.98073 34143 ft 421 kts 319°
2026-05-06 08:02 30.69776 27.93890 34144 ft 421 kts 319°
2026-05-06 08:03 30.74402 27.89713 34155 ft 420 kts 319°
2026-05-06 08:03 30.79015 27.85544 34159 ft 420 kts 319°
2026-05-06 08:04 30.83621 27.81377 34160 ft 419 kts 319°
2026-05-06 08:04 30.88191 27.77235 34163 ft 418 kts 319°
2026-05-06 08:05 30.92773 27.73072 34165 ft 417 kts 319°
2026-05-06 08:05 30.97350 27.68904 34167 ft 417 kts 319°
2026-05-06 08:06 31.01922 27.64744 34175 ft 417 kts 319°
2026-05-06 08:06 31.06491 27.60591 34179 ft 416 kts 319°
2026-05-06 08:07 31.11045 27.56436 34182 ft 415 kts 319°
2026-05-06 08:07 31.14967 27.51593 34184 ft 409 kts 302°
2026-05-06 08:08 31.18152 27.46079 34184 ft 409 kts 302°
2026-05-06 08:08 31.21348 27.40583 34188 ft 409 kts 302°
2026-05-06 08:09 31.24532 27.35111 34191 ft 409 kts 302°
2026-05-06 08:09 31.27722 27.29610 34191 ft 408 kts 302°
2026-05-06 08:10 31.30963 27.24146 34187 ft 409 kts 308°
2026-05-06 08:10 31.35259 27.19766 34187 ft 415 kts 324°
2026-05-06 08:11 31.40132 27.16147 34183 ft 415 kts 324°
2026-05-06 08:11 31.45004 27.12509 34182 ft 415 kts 324°
2026-05-06 08:12 31.49864 27.08867 34183 ft 415 kts 324°
2026-05-06 08:12 31.54732 27.05224 34183 ft 414 kts 324°
2026-05-06 08:13 31.59556 27.01594 34181 ft 414 kts 324°
2026-05-06 08:13 31.64400 26.97939 34180 ft 414 kts 324°
2026-05-06 08:14 31.69255 26.94287 34179 ft 414 kts 324°
2026-05-06 08:14 31.74110 26.90637 34179 ft 413 kts 324°
2026-05-06 08:15 31.78950 26.86982 34178 ft 413 kts 324°
2026-05-06 08:15 31.83786 26.83325 34177 ft 413 kts 324°
2026-05-06 08:16 31.88599 26.79691 34176 ft 413 kts 324°
2026-05-06 08:16 31.93437 26.76037 34173 ft 413 kts 324°
2026-05-06 08:17 31.98270 26.72368 34169 ft 413 kts 324°
2026-05-06 08:17 32.03098 26.68691 34172 ft 413 kts 324°
2026-05-06 08:18 32.07923 26.65019 34175 ft 412 kts 324°
2026-05-06 08:18 32.12783 26.61332 34172 ft 412 kts 324°
2026-05-06 08:19 32.17572 26.57687 34173 ft 412 kts 324°
2026-05-06 08:19 32.22385 26.54006 34170 ft 412 kts 324°
2026-05-06 08:20 32.27197 26.50327 34168 ft 412 kts 324°
2026-05-06 08:20 32.32007 26.46646 34166 ft 412 kts 324°
2026-05-06 08:21 32.36814 26.42961 34162 ft 412 kts 324°
2026-05-06 08:21 32.41618 26.39275 34160 ft 411 kts 324°
2026-05-06 08:22 32.46393 26.35606 34159 ft 411 kts 324°
2026-05-06 08:22 32.51195 26.31918 34158 ft 411 kts 324°
2026-05-06 08:23 32.56004 26.28216 34157 ft 411 kts 324°
2026-05-06 08:23 32.60804 26.24511 34154 ft 411 kts 324°
2026-05-06 08:24 32.65601 26.20802 34150 ft 411 kts 324°
2026-05-06 08:24 32.70403 26.17090 34152 ft 411 kts 324°
2026-05-06 08:25 32.75169 26.13405 34153 ft 411 kts 324°
2026-05-06 08:25 32.79957 26.09697 34155 ft 411 kts 324°
2026-05-06 08:26 32.84746 26.05976 34155 ft 410 kts 324°
2026-05-06 08:26 32.89523 26.02258 34152 ft 410 kts 324°
2026-05-06 08:27 32.94302 25.98540 34147 ft 410 kts 324°
2026-05-06 08:27 32.99090 25.94811 34147 ft 410 kts 324°
2026-05-06 08:28 33.03873 25.91079 34146 ft 410 kts 324°
2026-05-06 08:28 33.08641 25.87350 34147 ft 410 kts 324°
2026-05-06 08:29 33.13388 25.83636 34147 ft 410 kts 324°
2026-05-06 08:29 33.18155 25.79900 34148 ft 410 kts 324°
2026-05-06 08:30 33.22922 25.76164 34146 ft 409 kts 324°
2026-05-06 08:30 33.27680 25.72426 34144 ft 409 kts 324°
2026-05-06 08:31 33.32430 25.68689 34140 ft 408 kts 324°
2026-05-06 08:31 33.37183 25.64944 34141 ft 409 kts 324°
2026-05-06 08:32 33.41933 25.61208 34143 ft 408 kts 324°
2026-05-06 08:32 33.46677 25.57459 34142 ft 408 kts 324°
2026-05-06 08:33 33.51391 25.53739 34139 ft 408 kts 324°
2026-05-06 08:33 33.56113 25.49993 34134 ft 407 kts 324°
2026-05-06 08:34 33.63203 25.44367 34130 ft 407 kts 324°
2026-05-06 08:35 33.67929 25.40612 34128 ft 407 kts 324°
2026-05-06 08:35 33.71857 25.37493 34127 ft 407 kts 324°
2026-05-06 08:36 33.76574 25.33731 34123 ft 407 kts 324°
2026-05-06 08:36 33.81305 25.29962 34121 ft 407 kts 324°
2026-05-06 08:37 33.86041 25.26238 34121 ft 407 kts 326°
2026-05-06 08:37 33.90966 25.22829 34121 ft 408 kts 328°
2026-05-06 08:38 33.95956 25.19537 34121 ft 409 kts 328°
2026-05-06 08:38 34.00923 25.16189 34123 ft 408 kts 328°
2026-05-06 08:39 34.05857 25.12792 34128 ft 408 kts 328°
2026-05-06 08:39 34.10774 25.09382 34131 ft 408 kts 328°
2026-05-06 08:40 34.15679 25.06000 34131 ft 408 kts 328°
2026-05-06 08:40 34.20617 25.02593 34129 ft 408 kts 328°
2026-05-06 08:41 34.25542 24.99193 34128 ft 408 kts 328°
2026-05-06 08:41 34.30475 24.95788 34125 ft 408 kts 328°
2026-05-06 08:42 34.35401 24.92375 34122 ft 407 kts 328°
2026-05-06 08:42 34.40320 24.88957 34119 ft 408 kts 328°
2026-05-06 08:43 34.45250 24.85534 34118 ft 408 kts 328°
2026-05-06 08:43 34.50171 24.82109 34116 ft 408 kts 328°
2026-05-06 08:44 34.55091 24.78675 34117 ft 408 kts 328°
2026-05-06 08:44 34.59986 24.75264 34118 ft 408 kts 328°
2026-05-06 08:45 34.64905 24.71825 34118 ft 408 kts 328°
2026-05-06 08:45 34.69821 24.68382 34118 ft 408 kts 328°
2026-05-06 08:46 34.74742 24.64930 34119 ft 408 kts 328°
2026-05-06 08:46 34.79654 24.61483 34118 ft 408 kts 328°
2026-05-06 08:47 34.84569 24.58034 34120 ft 407 kts 328°
2026-05-06 08:47 34.89475 24.54587 34121 ft 407 kts 328°
2026-05-06 08:48 34.94346 24.51155 34119 ft 406 kts 328°
2026-05-06 08:48 34.99240 24.47693 34115 ft 406 kts 328°
2026-05-06 08:49 35.04129 24.44238 34114 ft 406 kts 328°
2026-05-06 08:49 35.09019 24.40780 34113 ft 406 kts 328°
2026-05-06 08:50 35.13905 24.37316 34113 ft 406 kts 328°
2026-05-06 08:50 35.18788 24.33844 34113 ft 405 kts 328°
2026-05-06 08:51 35.23665 24.30383 34112 ft 405 kts 328°
2026-05-06 08:51 35.28551 24.26913 34110 ft 405 kts 328°
2026-05-06 08:52 35.33421 24.23449 34112 ft 404 kts 328°
2026-05-06 08:52 35.38247 24.20002 34106 ft 404 kts 328°
2026-05-06 08:53 35.43134 24.16508 34102 ft 404 kts 328°
2026-05-06 08:53 35.47991 24.13035 34106 ft 404 kts 328°
2026-05-06 08:54 35.52839 24.09561 34106 ft 403 kts 328°
2026-05-06 08:54 35.57688 24.06081 34105 ft 403 kts 329°
2026-05-06 08:55 35.62532 24.02600 34105 ft 403 kts 329°
2026-05-06 08:55 35.67350 23.99133 34107 ft 404 kts 329°
2026-05-06 08:56 35.72194 23.95638 34108 ft 403 kts 329°
2026-05-06 08:56 35.77032 23.92141 34107 ft 403 kts 328°
2026-05-06 08:57 35.81563 23.88857 34108 ft 403 kts 329°
2026-05-06 08:57 35.85963 23.85672 34111 ft 403 kts 329°
2026-05-06 08:58 35.90607 23.82315 34114 ft 402 kts 329°
2026-05-06 08:58 35.95434 23.78813 34115 ft 402 kts 328°
2026-05-06 08:59 36.00287 23.75283 34111 ft 402 kts 328°
2026-05-06 08:59 36.05081 23.71793 34111 ft 402 kts 328°
2026-05-06 09:00 36.09902 23.68281 34111 ft 402 kts 328°
2026-05-06 09:00 36.14734 23.64764 34114 ft 403 kts 328°
2026-05-06 09:01 36.19564 23.61235 34115 ft 403 kts 328°
2026-05-06 09:01 36.24391 23.57698 34116 ft 403 kts 328°
2026-05-06 09:02 36.29213 23.54161 34114 ft 403 kts 328°
2026-05-06 09:02 36.34008 23.50633 34113 ft 403 kts 328°
2026-05-06 09:03 36.38839 23.47076 34114 ft 403 kts 328°
2026-05-06 09:03 36.43673 23.43521 34115 ft 404 kts 328°
2026-05-06 09:04 36.48512 23.39966 34117 ft 404 kts 328°
2026-05-06 09:04 36.53349 23.36398 34119 ft 404 kts 328°
2026-05-06 09:05 36.58193 23.32813 34119 ft 404 kts 328°
2026-05-06 09:05 36.63028 23.29226 34116 ft 405 kts 328°
2026-05-06 09:06 36.67837 23.25653 34115 ft 405 kts 328°
2026-05-06 09:06 36.72686 23.22055 34114 ft 405 kts 328°
2026-05-06 09:07 36.77528 23.18451 34113 ft 405 kts 328°
2026-05-06 09:07 36.82377 23.14832 34111 ft 406 kts 328°
2026-05-06 09:08 36.87235 23.11216 34105 ft 407 kts 327°
2026-05-06 09:08 36.92116 23.07569 34086 ft 410 kts 327°
2026-05-06 09:09 36.97020 23.03889 34088 ft 412 kts 327°
2026-05-06 09:09 37.01945 23.00199 34087 ft 413 kts 327°
2026-05-06 09:10 37.06852 22.96527 34091 ft 413 kts 327°
2026-05-06 09:10 37.11794 22.92816 34098 ft 414 kts 327°
2026-05-06 09:11 37.16733 22.89090 34100 ft 414 kts 327°
2026-05-06 09:11 37.21673 22.85361 34101 ft 414 kts 327°
2026-05-06 09:12 37.26611 22.81630 34097 ft 414 kts 327°
2026-05-06 09:12 37.31551 22.77892 34098 ft 414 kts 327°
2026-05-06 09:13 37.36490 22.74151 34096 ft 414 kts 327°
2026-05-06 09:13 37.41428 22.70408 34096 ft 414 kts 327°
2026-05-06 09:14 37.46370 22.66652 34092 ft 414 kts 327°
2026-05-06 09:14 37.51304 22.62895 34088 ft 414 kts 327°
2026-05-06 09:15 37.55398 22.59773 34094 ft 414 kts 327°
2026-05-06 09:15 37.60332 22.56003 34096 ft 414 kts 327°
2026-05-06 09:16 37.65257 22.52239 34093 ft 414 kts 327°
2026-05-06 09:16 37.70189 22.48470 34086 ft 414 kts 327°
2026-05-06 09:17 37.75118 22.44696 34087 ft 415 kts 327°
2026-05-06 09:17 37.80055 22.40901 34088 ft 415 kts 326°
2026-05-06 09:18 37.84988 22.37095 34096 ft 415 kts 327°
2026-05-06 09:18 37.89893 22.33313 34098 ft 416 kts 327°
2026-05-06 09:19 37.94831 22.29504 34098 ft 416 kts 327°
2026-05-06 09:19 37.99778 22.25683 34099 ft 416 kts 326°
2026-05-06 09:20 38.04715 22.21861 34101 ft 415 kts 327°
2026-05-06 09:20 38.09650 22.18026 34124 ft 416 kts 326°
2026-05-06 09:21 38.14587 22.14185 34118 ft 416 kts 326°
2026-05-06 09:21 38.19523 22.10352 34109 ft 415 kts 326°
2026-05-06 09:22 38.24463 22.06515 34111 ft 416 kts 326°
2026-05-06 09:22 38.29395 22.02665 34111 ft 416 kts 326°
2026-05-06 09:23 38.34326 21.98803 34111 ft 415 kts 326°
2026-05-06 09:23 38.39222 21.94965 34109 ft 415 kts 326°
2026-05-06 09:24 38.44151 21.91101 34108 ft 416 kts 326°
2026-05-06 09:24 38.49087 21.87223 34105 ft 416 kts 326°
2026-05-06 09:25 38.54026 21.83336 34107 ft 417 kts 326°
2026-05-06 09:25 38.58964 21.79444 34105 ft 417 kts 326°
2026-05-06 09:26 38.63901 21.75552 34108 ft 417 kts 326°
2026-05-06 09:26 38.68837 21.71647 34108 ft 416 kts 326°
2026-05-06 09:27 38.73763 21.67745 34109 ft 417 kts 326°
2026-05-06 09:27 38.78655 21.63859 34108 ft 417 kts 326°
2026-05-06 09:28 38.83584 21.59939 34107 ft 417 kts 326°
2026-05-06 09:28 38.88524 21.56008 34107 ft 418 kts 326°
2026-05-06 09:29 38.93454 21.52076 34108 ft 418 kts 326°
2026-05-06 09:29 38.98390 21.48131 34110 ft 418 kts 326°
2026-05-06 09:30 39.03325 21.44185 34113 ft 417 kts 326°
2026-05-06 09:30 39.08260 21.40238 34115 ft 417 kts 326°
2026-05-06 09:31 39.13197 21.36279 34118 ft 418 kts 326°
2026-05-06 09:31 39.18132 21.32312 34119 ft 417 kts 326°
2026-05-06 09:32 39.23025 21.28364 34114 ft 417 kts 326°
2026-05-06 09:32 39.27957 21.24389 34112 ft 418 kts 326°
2026-05-06 09:33 39.32888 21.20404 34116 ft 418 kts 326°
2026-05-06 09:33 39.37819 21.16406 34121 ft 418 kts 326°
2026-05-06 09:34 39.42744 21.12406 34120 ft 418 kts 326°
2026-05-06 09:34 39.47684 21.08402 34120 ft 419 kts 326°
2026-05-06 09:35 39.52620 21.04394 34120 ft 419 kts 326°
2026-05-06 09:35 39.57553 21.00377 34122 ft 419 kts 326°
2026-05-06 09:36 39.62489 20.96344 34122 ft 419 kts 326°
2026-05-06 09:36 39.67431 20.92304 34121 ft 419 kts 326°
2026-05-06 09:37 39.72367 20.88260 34121 ft 420 kts 325°
2026-05-06 09:37 39.77298 20.84211 34119 ft 419 kts 325°
2026-05-06 09:38 39.82225 20.80158 34118 ft 419 kts 325°
2026-05-06 09:38 39.87163 20.76099 34116 ft 420 kts 325°
2026-05-06 09:39 39.92073 20.72050 34116 ft 421 kts 325°
2026-05-06 09:39 39.97036 20.67949 34118 ft 422 kts 325°
2026-05-06 09:40 40.01990 20.63853 34120 ft 422 kts 325°
2026-05-06 09:40 40.09444 20.57698 34123 ft 422 kts 326°
2026-05-06 09:41 40.14498 20.53761 34120 ft 423 kts 327°
2026-05-06 09:41 40.19588 20.49869 34121 ft 423 kts 327°
2026-05-06 09:42 40.24661 20.45949 34121 ft 424 kts 327°
2026-05-06 09:42 40.29692 20.42012 34121 ft 423 kts 326°
2026-05-06 09:43 40.34746 20.38051 34120 ft 423 kts 326°
2026-05-06 09:43 40.39800 20.34081 34116 ft 423 kts 326°
2026-05-06 09:44 40.44851 20.30112 34115 ft 423 kts 326°
2026-05-06 09:44 40.49898 20.26149 34115 ft 423 kts 326°
2026-05-06 09:45 40.54944 20.22161 34114 ft 423 kts 326°
2026-05-06 09:45 40.59982 20.18166 34114 ft 423 kts 326°
2026-05-06 09:46 40.65032 20.14178 34120 ft 424 kts 326°
2026-05-06 09:46 40.70082 20.10174 34122 ft 423 kts 326°
2026-05-06 09:47 40.75105 20.06189 34127 ft 423 kts 326°
2026-05-06 09:47 40.80144 20.02185 34128 ft 423 kts 326°
2026-05-06 09:48 40.85175 19.98171 34119 ft 422 kts 326°
2026-05-06 09:48 40.90220 19.94153 34100 ft 424 kts 326°
2026-05-06 09:49 40.95287 19.90111 34098 ft 425 kts 326°
2026-05-06 09:49 41.00354 19.86046 34100 ft 426 kts 326°
2026-05-06 09:50 41.05427 19.81973 34100 ft 426 kts 326°
2026-05-06 09:50 41.10465 19.77926 34098 ft 426 kts 326°
2026-05-06 09:51 41.15541 19.73838 34097 ft 426 kts 326°
2026-05-06 09:51 41.20603 19.69743 34096 ft 426 kts 326°
2026-05-06 09:52 41.25668 19.65647 34097 ft 426 kts 326°
2026-05-06 09:52 41.30739 19.61540 34098 ft 426 kts 326°
2026-05-06 09:53 41.35799 19.57438 34097 ft 426 kts 326°
2026-05-06 09:53 41.40828 19.53348 34092 ft 426 kts 326°
2026-05-06 09:54 41.45899 19.49219 34097 ft 426 kts 326°
2026-05-06 09:54 41.50957 19.45101 34094 ft 426 kts 326°
2026-05-06 09:55 41.55935 19.41027 34096 ft 426 kts 325°
2026-05-06 09:55 41.59745 19.37905 34096 ft 426 kts 326°
2026-05-06 09:56 41.64697 19.33848 34096 ft 426 kts 325°
2026-05-06 09:56 41.69759 19.29677 34099 ft 427 kts 325°
2026-05-06 09:57 41.74825 19.25509 34100 ft 427 kts 325°
2026-05-06 09:57 41.79863 19.21362 34098 ft 427 kts 325°
2026-05-06 09:58 41.84922 19.17181 34089 ft 427 kts 325°
2026-05-06 09:58 41.89981 19.12987 34088 ft 428 kts 325°
2026-05-06 09:59 41.95041 19.08782 34091 ft 428 kts 325°
2026-05-06 09:59 41.99245 19.05288 34090 ft 428 kts 325°
2026-05-06 10:00 42.04323 19.01075 34089 ft 428 kts 325°
2026-05-06 10:00 42.09399 18.96850 34086 ft 429 kts 325°
2026-05-06 10:01 42.14469 18.92601 34088 ft 429 kts 325°
2026-05-06 10:01 42.19544 18.88348 34089 ft 429 kts 325°
2026-05-06 10:02 42.24629 18.84086 34086 ft 430 kts 325°
2026-05-06 10:02 42.29721 18.79806 34086 ft 431 kts 325°
2026-05-06 10:03 42.34813 18.75516 34085 ft 432 kts 325°
2026-05-06 10:03 42.39916 18.71217 34092 ft 432 kts 325°
2026-05-06 10:04 42.44993 18.66930 34090 ft 433 kts 325°
2026-05-06 10:04 42.50107 18.62604 34096 ft 433 kts 325°
2026-05-06 10:05 42.55218 18.58268 34091 ft 433 kts 324°
2026-05-06 10:05 42.60327 18.53918 34093 ft 433 kts 324°
2026-05-06 10:06 42.65442 18.49554 34096 ft 433 kts 324°
2026-05-06 10:06 42.70541 18.45204 34096 ft 433 kts 324°
2026-05-06 10:07 42.75646 18.40837 34096 ft 434 kts 324°
2026-05-06 10:07 42.80754 18.36462 34097 ft 434 kts 324°
2026-05-06 10:08 42.85828 18.32108 34092 ft 434 kts 324°
2026-05-06 10:08 42.90939 18.27704 34090 ft 434 kts 324°
2026-05-06 10:09 42.96046 18.23303 34087 ft 434 kts 324°
2026-05-06 10:09 43.01156 18.18894 34079 ft 434 kts 324°
2026-05-06 10:10 43.06250 18.14490 34073 ft 434 kts 324°
2026-05-06 10:10 43.11353 18.10069 34063 ft 434 kts 324°
2026-05-06 10:11 43.16446 18.05637 34059 ft 434 kts 324°
2026-05-06 10:11 43.21542 18.01197 34054 ft 434 kts 324°
2026-05-06 10:12 43.26635 17.96749 34036 ft 434 kts 324°
2026-05-06 10:12 43.31715 17.92310 34029 ft 436 kts 324°
2026-05-06 10:13 43.36860 17.87809 34033 ft 436 kts 324°
2026-05-06 10:13 43.41981 17.83325 34038 ft 436 kts 324°
2026-05-06 10:14 43.47105 17.78822 34046 ft 436 kts 324°
2026-05-06 10:14 43.52192 17.74336 34052 ft 437 kts 324°
2026-05-06 10:15 43.57310 17.69816 34047 ft 437 kts 324°
2026-05-06 10:15 43.62425 17.65290 34045 ft 437 kts 324°
2026-05-06 10:16 43.67537 17.60755 34037 ft 437 kts 324°
2026-05-06 10:16 43.72645 17.56208 34036 ft 437 kts 324°
2026-05-06 10:17 43.77605 17.51384 34034 ft 434 kts 319°
2026-05-06 10:17 43.82377 17.46260 34032 ft 434 kts 319°
2026-05-06 10:18 43.87153 17.41117 34025 ft 434 kts 319°
2026-05-06 10:18 43.91893 17.36001 34023 ft 435 kts 319°
2026-05-06 10:19 43.96667 17.30831 34027 ft 435 kts 319°
2026-05-06 10:19 44.01439 17.25650 34030 ft 435 kts 319°
2026-05-06 10:20 44.06218 17.20463 34036 ft 435 kts 319°
2026-05-06 10:20 44.10981 17.15284 34032 ft 435 kts 318°
2026-05-06 10:21 44.15738 17.10083 34026 ft 435 kts 318°
2026-05-06 10:21 44.20495 17.04867 34023 ft 435 kts 318°
2026-05-06 10:22 44.25250 16.99652 34019 ft 435 kts 318°
2026-05-06 10:22 44.30010 16.94435 34014 ft 435 kts 318°
2026-05-06 10:23 44.34774 16.89200 34006 ft 435 kts 318°
2026-05-06 10:23 44.39530 16.83964 33995 ft 435 kts 318°
2026-05-06 10:24 44.44281 16.78712 33991 ft 435 kts 317°
2026-05-06 10:24 44.49040 16.73450 33986 ft 435 kts 318°
2026-05-06 10:25 44.53760 16.68203 33983 ft 436 kts 317°
2026-05-06 10:25 44.58540 16.62886 33981 ft 436 kts 317°
2026-05-06 10:26 44.63288 16.57597 33979 ft 436 kts 317°
2026-05-06 10:26 44.68028 16.52294 33982 ft 435 kts 317°
2026-05-06 10:27 44.72742 16.47022 33984 ft 436 kts 317°
2026-05-06 10:27 44.77483 16.41712 33980 ft 435 kts 317°
2026-05-06 10:28 44.82222 16.36378 33981 ft 436 kts 317°
2026-05-06 10:28 44.86955 16.31036 33987 ft 436 kts 317°
2026-05-06 10:29 44.91691 16.25691 33989 ft 436 kts 317°
2026-05-06 10:29 44.96428 16.20348 33987 ft 436 kts 317°
2026-05-06 10:30 45.01153 16.14995 33983 ft 435 kts 317°
2026-05-06 10:30 45.05871 16.09618 33977 ft 435 kts 317°
2026-05-06 10:31 45.10575 16.04253 33972 ft 435 kts 317°
2026-05-06 10:31 45.15282 15.98877 33973 ft 435 kts 316°
2026-05-06 10:32 45.19991 15.93491 33974 ft 435 kts 316°
2026-05-06 10:32 45.24757 15.88175 33975 ft 436 kts 319°
2026-05-06 10:33 45.29736 15.83200 33973 ft 437 kts 321°
2026-05-06 10:33 45.34773 15.78344 33975 ft 438 kts 320°
2026-05-06 10:34 45.39748 15.73439 33980 ft 437 kts 320°
2026-05-06 10:34 45.44713 15.68436 33981 ft 437 kts 319°
2026-05-06 10:35 45.49670 15.63411 33984 ft 437 kts 319°
2026-05-06 10:35 45.54626 15.58383 33988 ft 437 kts 319°
2026-05-06 10:36 45.59584 15.53367 33988 ft 437 kts 319°
2026-05-06 10:36 45.64534 15.48357 33985 ft 436 kts 319°
2026-05-06 10:37 45.69487 15.43323 33980 ft 436 kts 319°
2026-05-06 10:37 45.74426 15.38287 33978 ft 436 kts 319°
2026-05-06 10:38 45.79382 15.33302 33974 ft 436 kts 321°
2026-05-06 10:38 45.84534 15.28630 33978 ft 439 kts 323°
2026-05-06 10:39 45.89751 15.24073 33976 ft 439 kts 323°
2026-05-06 10:39 45.94899 15.19485 33973 ft 438 kts 322°
2026-05-06 10:40 46.00044 15.14799 33973 ft 437 kts 321°
2026-05-06 10:40 46.05187 15.10095 33964 ft 438 kts 321°
2026-05-06 10:41 46.09469 15.06189 33964 ft 438 kts 321°
2026-05-06 10:41 46.14619 15.01484 33966 ft 438 kts 321°
2026-05-06 10:42 46.19771 14.96764 33961 ft 439 kts 321°
2026-05-06 10:42 46.24931 14.92034 33957 ft 439 kts 321°
2026-05-06 10:43 46.30086 14.87290 33951 ft 439 kts 321°
2026-05-06 10:44 46.37811 14.80155 33947 ft 439 kts 321°
2026-05-06 10:44 46.42969 14.75383 33950 ft 439 kts 321°
2026-05-06 10:45 46.48118 14.70608 33947 ft 440 kts 321°
2026-05-06 10:45 46.53058 14.66024 33948 ft 439 kts 321°
2026-05-06 10:46 46.58209 14.61235 33937 ft 440 kts 320°
2026-05-06 10:46 46.63366 14.56412 33936 ft 440 kts 320°
2026-05-06 10:47 46.68510 14.51585 33935 ft 440 kts 320°
2026-05-06 10:47 46.73662 14.46753 33933 ft 441 kts 320°
2026-05-06 10:48 46.78810 14.41913 33932 ft 441 kts 320°
2026-05-06 10:48 46.83969 14.37056 33931 ft 441 kts 320°
2026-05-06 10:49 46.89090 14.32223 33928 ft 441 kts 320°
2026-05-06 10:49 46.94246 14.27346 33923 ft 441 kts 320°
2026-05-06 10:50 46.99398 14.22455 33915 ft 442 kts 320°
2026-05-06 10:50 47.04496 14.17598 33912 ft 443 kts 320°
2026-05-06 10:51 47.09664 14.12678 33901 ft 443 kts 321°
2026-05-06 10:51 47.14843 14.07731 33894 ft 443 kts 321°
2026-05-06 10:52 47.20017 14.02778 33893 ft 444 kts 321°
2026-05-06 10:52 47.25200 13.97807 33887 ft 445 kts 320°
2026-05-06 10:53 47.30349 13.92842 33869 ft 446 kts 320°
2026-05-06 10:53 47.35541 13.87825 33864 ft 447 kts 320°
2026-05-06 10:54 47.40742 13.82793 33857 ft 447 kts 320°
2026-05-06 10:54 47.45948 13.77750 33849 ft 448 kts 320°
2026-05-06 10:55 47.51156 13.72696 33844 ft 448 kts 320°
2026-05-06 10:55 47.56373 13.67628 33836 ft 448 kts 320°
2026-05-06 10:56 47.61588 13.62537 33834 ft 448 kts 320°
2026-05-06 10:56 47.66792 13.57441 33824 ft 448 kts 320°
2026-05-06 10:57 47.71999 13.52332 33820 ft 448 kts 320°
2026-05-06 10:57 47.77206 13.47208 33814 ft 448 kts 320°
2026-05-06 10:58 47.82405 13.42083 33812 ft 448 kts 320°
2026-05-06 10:58 47.87567 13.36976 33808 ft 448 kts 320°
2026-05-06 10:59 47.92766 13.31820 33804 ft 449 kts 320°
2026-05-06 10:59 47.97969 13.26654 33800 ft 449 kts 320°
2026-05-06 11:00 48.03166 13.21480 33797 ft 449 kts 320°
2026-05-06 11:00 48.08375 13.16273 33792 ft 450 kts 320°
2026-05-06 11:01 48.13591 13.11059 33792 ft 451 kts 320°
2026-05-06 11:01 48.18793 13.05827 33798 ft 451 kts 320°
2026-05-06 11:02 48.23933 13.00447 33800 ft 446 kts 314°
2026-05-06 11:02 48.28699 12.94459 33803 ft 446 kts 313°
2026-05-06 11:03 48.33451 12.88468 33801 ft 446 kts 313°
2026-05-06 11:03 48.38199 12.82460 33799 ft 446 kts 313°
2026-05-06 11:04 48.42949 12.76445 33796 ft 446 kts 313°
2026-05-06 11:04 48.47659 12.70469 33795 ft 446 kts 313°
2026-05-06 11:05 48.52397 12.64442 33794 ft 446 kts 313°
2026-05-06 11:05 48.57140 12.58391 33794 ft 446 kts 313°
2026-05-06 11:06 48.61874 12.52320 33793 ft 446 kts 313°
2026-05-06 11:06 48.66606 12.46243 33793 ft 446 kts 313°
2026-05-06 11:07 48.71341 12.40157 33793 ft 446 kts 313°
2026-05-06 11:07 48.76071 12.34055 33793 ft 446 kts 313°
2026-05-06 11:08 48.80795 12.27948 33795 ft 446 kts 313°
2026-05-06 11:08 48.85515 12.21829 33795 ft 446 kts 313°
2026-05-06 11:09 48.90231 12.15701 33794 ft 446 kts 313°
2026-05-06 11:09 48.94919 12.09584 33798 ft 446 kts 313°
2026-05-06 11:10 48.99629 12.03433 33798 ft 446 kts 313°
2026-05-06 11:10 49.04344 11.97262 33799 ft 447 kts 312°
2026-05-06 11:11 49.09049 11.91071 33798 ft 447 kts 312°
2026-05-06 11:11 49.13758 11.84843 33798 ft 448 kts 312°
2026-05-06 11:12 49.18355 11.78780 33800 ft 448 kts 312°
2026-05-06 11:12 49.23086 11.72547 33803 ft 449 kts 313°
2026-05-06 11:13 49.27786 11.66320 33803 ft 450 kts 312°
2026-05-06 11:13 49.32516 11.60026 33807 ft 450 kts 312°
2026-05-06 11:14 49.37238 11.53722 33807 ft 450 kts 312°
2026-05-06 11:14 49.41968 11.47402 33805 ft 450 kts 312°
2026-05-06 11:15 49.46683 11.41074 33805 ft 450 kts 312°
2026-05-06 11:15 49.51404 11.34730 33801 ft 450 kts 312°
2026-05-06 11:16 49.56124 11.28360 33801 ft 451 kts 312°
2026-05-06 11:16 49.60819 11.22002 33801 ft 451 kts 312°
2026-05-06 11:17 49.65543 11.15593 33797 ft 451 kts 312°
2026-05-06 11:17 49.70258 11.09192 33796 ft 451 kts 312°
2026-05-06 11:18 49.74966 11.02776 33795 ft 452 kts 312°
2026-05-06 11:18 49.79679 10.96347 33795 ft 452 kts 312°
2026-05-06 11:19 49.84398 10.89880 33794 ft 453 kts 312°
2026-05-06 11:19 49.89074 10.83433 33793 ft 453 kts 312°
2026-05-06 11:20 49.93793 10.76925 33791 ft 453 kts 312°
2026-05-06 11:20 49.98521 10.70393 33786 ft 454 kts 312°
2026-05-06 11:21 50.03240 10.63860 33781 ft 455 kts 313°
2026-05-06 11:21 50.07963 10.57301 33782 ft 455 kts 313°
2026-05-06 11:22 50.12693 10.50715 33780 ft 457 kts 313°
2026-05-06 11:22 50.17426 10.44096 33781 ft 457 kts 313°
2026-05-06 11:23 50.21788 10.37077 33782 ft 449 kts 301°
2026-05-06 11:23 50.25374 10.29106 33781 ft 448 kts 300°
2026-05-06 11:24 50.28942 10.21118 33782 ft 448 kts 299°
2026-05-06 11:24 50.31911 10.14462 33781 ft 449 kts 299°
2026-05-06 11:25 50.35483 10.06445 33780 ft 449 kts 299°
2026-05-06 11:25 50.39045 9.98412 33781 ft 449 kts 299°
2026-05-06 11:26 50.42594 9.90371 33780 ft 448 kts 299°
2026-05-06 11:26 50.46139 9.82310 33767 ft 449 kts 300°
2026-05-06 11:27 50.49702 9.74185 33768 ft 449 kts 300°
2026-05-06 11:27 50.53220 9.66158 33770 ft 449 kts 300°
2026-05-06 11:28 50.56760 9.58055 33767 ft 449 kts 300°
2026-05-06 11:28 50.60295 9.49953 33769 ft 449 kts 300°
2026-05-06 11:29 50.63820 9.41822 33772 ft 449 kts 300°
2026-05-06 11:29 50.67338 9.33683 33763 ft 449 kts 300°
2026-05-06 11:30 50.70505 9.26341 33765 ft 449 kts 300°
2026-05-06 11:30 50.74017 9.18185 33758 ft 449 kts 300°
2026-05-06 11:31 50.77516 9.10013 33766 ft 449 kts 301°
2026-05-06 11:31 50.81012 9.01829 33771 ft 449 kts 301°
2026-05-06 11:32 50.84533 8.93708 33669 ft 451 kts 303°
2026-05-06 11:32 50.86424 8.89764 33419 ft 449 kts 305°
2026-05-06 11:32 50.88380 8.85914 33178 ft 448 kts 306°
2026-05-06 11:32 50.90361 8.82116 32920 ft 446 kts 306°
2026-05-06 11:33 50.92336 8.78334 32667 ft 445 kts 306°
2026-05-06 11:33 50.94278 8.74562 32250 ft 440 kts 306°
2026-05-06 11:33 50.96193 8.70772 31730 ft 438 kts 305°
2026-05-06 11:33 50.98074 8.66987 31205 ft 435 kts 305°
2026-05-06 11:34 50.99933 8.63224 30698 ft 433 kts 306°
2026-05-06 11:34 51.01993 8.59724 30179 ft 434 kts 315°
2026-05-06 11:34 51.04393 8.56801 29677 ft 435 kts 324°
2026-05-06 11:34 51.06919 8.54202 29162 ft 432 kts 324°
2026-05-06 11:35 51.09433 8.51608 28648 ft 429 kts 324°
2026-05-06 11:35 51.11927 8.49021 28132 ft 426 kts 324°
2026-05-06 11:35 51.14400 8.46446 27633 ft 423 kts 324°
2026-05-06 11:35 51.16853 8.43889 27147 ft 419 kts 325°
2026-05-06 11:36 51.19285 8.41354 26661 ft 416 kts 324°
2026-05-06 11:36 51.21666 8.38863 26209 ft 412 kts 324°
2026-05-06 11:36 51.24047 8.36362 25749 ft 408 kts 325°
2026-05-06 11:36 51.26409 8.33887 25318 ft 404 kts 325°
2026-05-06 11:37 51.28748 8.31441 24892 ft 400 kts 325°
2026-05-06 11:37 51.31067 8.29011 24464 ft 397 kts 325°
2026-05-06 11:37 51.33363 8.26593 24041 ft 394 kts 325°
2026-05-06 11:37 51.35640 8.24188 23620 ft 390 kts 325°
2026-05-06 11:38 51.37900 8.21807 23201 ft 387 kts 325°
2026-05-06 11:38 51.40138 8.19450 22778 ft 384 kts 325°
2026-05-06 11:38 51.42365 8.17105 22332 ft 381 kts 325°
2026-05-06 11:38 51.44575 8.14781 21846 ft 379 kts 324°
2026-05-06 11:39 51.46731 8.12380 21371 ft 375 kts 317°
2026-05-06 11:39 51.48454 8.09303 20880 ft 369 kts 301°
2026-05-06 11:39 51.49562 8.05641 20399 ft 362 kts 285°
2026-05-06 11:39 51.50015 8.01765 19927 ft 356 kts 270°
2026-05-06 11:40 51.49821 7.97847 19451 ft 350 kts 255°
2026-05-06 11:40 51.49174 7.94048 18966 ft 347 kts 252°
2026-05-06 11:40 51.48521 7.90337 18485 ft 344 kts 252°
2026-05-06 11:40 51.47881 7.86692 17996 ft 342 kts 252°
2026-05-06 11:41 51.47235 7.83035 17551 ft 339 kts 252°
2026-05-06 11:41 51.46590 7.79420 17098 ft 335 kts 252°
2026-05-06 11:41 51.45950 7.75838 16646 ft 333 kts 252°
2026-05-06 11:41 51.45316 7.72274 16198 ft 330 kts 252°
2026-05-06 11:42 51.44690 7.68750 15751 ft 327 kts 252°
2026-05-06 11:42 51.44067 7.65263 15322 ft 325 kts 252°
2026-05-06 11:42 51.43442 7.61798 14865 ft 322 kts 252°
2026-05-06 11:42 51.42823 7.58371 14437 ft 319 kts 252°
2026-05-06 11:43 51.42228 7.54961 14006 ft 317 kts 256°
2026-05-06 11:43 51.41988 7.51454 13649 ft 318 kts 268°
2026-05-06 11:43 51.42024 7.47898 13411 ft 320 kts 269°
2026-05-06 11:44 51.42068 7.40792 12893 ft 318 kts 268°
2026-05-06 11:44 51.42082 7.37245 12636 ft 317 kts 268°
2026-05-06 11:44 51.42096 7.33709 12377 ft 316 kts 268°
2026-05-06 11:44 51.42107 7.30191 12123 ft 315 kts 268°
2026-05-06 11:45 51.42118 7.26689 11873 ft 314 kts 268°
2026-05-06 11:45 51.42132 7.23196 11620 ft 314 kts 268°
2026-05-06 11:45 51.41953 7.19777 11369 ft 311 kts 256°
2026-05-06 11:45 51.41225 7.16499 11122 ft 308 kts 241°
2026-05-06 11:46 51.40040 7.13712 10871 ft 307 kts 227°
2026-05-06 11:46 51.38558 7.11249 10624 ft 307 kts 225°
2026-05-06 11:46 51.37072 7.08795 10377 ft 307 kts 225°
2026-05-06 11:46 51.35589 7.06340 10127 ft 306 kts 225°
2026-05-06 11:47 51.34140 7.03940 9970 ft 294 kts 225°
2026-05-06 11:47 51.32737 7.01619 9752 ft 287 kts 225°
2026-05-06 11:47 51.31359 6.99341 9615 ft 283 kts 225°
2026-05-06 11:47 51.29989 6.97081 9416 ft 283 kts 225°
2026-05-06 11:48 51.28620 6.94830 9163 ft 282 kts 225°
2026-05-06 11:48 51.27257 6.92590 8903 ft 281 kts 225°
2026-05-06 11:48 51.25893 6.90356 8643 ft 280 kts 225°
2026-05-06 11:48 51.24536 6.88137 8385 ft 280 kts 225°
2026-05-06 11:49 51.23191 6.85935 8227 ft 271 kts 225°
2026-05-06 11:49 51.21895 6.83815 8097 ft 262 kts 225°
2026-05-06 11:49 51.20645 6.81756 7983 ft 254 kts 228°
2026-05-06 11:49 51.19576 6.79557 7780 ft 249 kts 232°
2026-05-06 11:50 51.18540 6.77387 7637 ft 245 kts 232°
2026-05-06 11:50 51.17509 6.75233 7450 ft 244 kts 232°
2026-05-06 11:50 51.16479 6.73077 7255 ft 244 kts 232°
2026-05-06 11:50 51.15455 6.70930 7062 ft 243 kts 232°
2026-05-06 11:51 51.14434 6.68796 6873 ft 242 kts 232°
2026-05-06 11:51 51.13411 6.66661 6707 ft 242 kts 232°
2026-05-06 11:51 51.12390 6.64533 6608 ft 242 kts 232°
2026-05-06 11:51 51.11369 6.62405 6438 ft 241 kts 232°
2026-05-06 11:52 51.10351 6.60286 6254 ft 240 kts 232°
2026-05-06 11:52 51.09334 6.58169 6062 ft 240 kts 232°
2026-05-06 11:52 51.08334 6.56086 5877 ft 240 kts 232°
2026-05-06 11:52 51.07324 6.53990 5670 ft 239 kts 232°
2026-05-06 11:53 51.06309 6.51896 5488 ft 239 kts 232°
2026-05-06 11:53 51.05299 6.49806 5295 ft 238 kts 232°
2026-05-06 11:53 51.04292 6.47719 5104 ft 238 kts 232°
2026-05-06 11:53 51.03294 6.45628 4950 ft 239 kts 235°
2026-05-06 11:54 51.02643 6.43189 4533 ft 241 kts 261°
2026-05-06 11:54 51.02656 6.40602 4422 ft 230 kts 282°
2026-05-06 11:54 51.03236 6.38321 4359 ft 220 kts 304°
2026-05-06 11:54 51.04271 6.36564 4320 ft 217 kts 325°
2026-05-06 11:55 51.05612 6.35516 4273 ft 216 kts 346°
2026-05-06 11:55 51.07093 6.35285 4225 ft 214 kts
2026-05-06 11:55 51.08527 6.35890 4175 ft 215 kts 26°
2026-05-06 11:55 51.09735 6.37256 4133 ft 214 kts 47°
2026-05-06 11:56 51.10644 6.39114 4080 ft 213 kts 53°
2026-05-06 11:56 51.11544 6.41028 4004 ft 213 kts 52°
2026-05-06 11:56 51.12436 6.42875 3885 ft 213 kts 52°
2026-05-06 11:56 51.13347 6.44759 3728 ft 212 kts 52°
2026-05-06 11:57 51.14242 6.46612 3629 ft 210 kts 52°
2026-05-06 11:57 51.15133 6.48456 3543 ft 210 kts 52°
2026-05-06 11:57 51.16019 6.50295 3465 ft 209 kts 52°
2026-05-06 11:57 51.16900 6.52127 3390 ft 208 kts 52°
2026-05-06 11:58 51.17774 6.53942 3323 ft 200 kts 52°
2026-05-06 11:58 51.18604 6.55668 3142 ft 193 kts 52°
2026-05-06 11:58 51.19409 6.57341 2940 ft 186 kts 52°
2026-05-06 11:58 51.20183 6.58953 2678 ft 180 kts 53°
2026-05-06 11:59 51.20934 6.60516 2438 ft 174 kts 54°
2026-05-06 11:59 51.21661 6.62031 2210 ft 169 kts 55°
2026-05-06 11:59 51.22371 6.63511 1989 ft 166 kts 55°
2026-05-06 11:59 51.23065 6.64959 1773 ft 162 kts 54°
2026-05-06 12:00 51.23741 6.66371 1558 ft 157 kts 54°
2026-05-06 12:00 51.24384 6.67715 1351 ft 146 kts 52°
2026-05-06 12:00 51.24978 6.68956 1172 ft 135 kts 50°
2026-05-06 12:00 51.25539 6.70128 996 ft 131 kts 50°
2026-05-06 12:01 51.26088 6.71278 823 ft 129 kts 50°
2026-05-06 12:01 51.26631 6.72418 655 ft 129 kts 50°
2026-05-06 12:01 51.27171 6.73550 487 ft 128 kts 49°
2026-05-06 12:01 51.27712 6.74678 302 ft 127 kts 49°
2026-05-06 12:02 51.28246 6.75792 143 ft 125 kts 49°
2026-05-06 12:02 51.28705 6.76740 126 ft 87 kts 52°
2026-05-06 12:02 51.28964 6.77292 129 ft 38 kts 53°
2026-05-06 12:02 51.29018 6.77409 129 ft 13 kts 55°
2026-05-06 12:03 51.29035 6.77495 129 ft 4 kts 88°
2026-05-06 12:03 51.29020 6.77553 135 ft 8 kts 134°
2026-05-06 12:03 51.28964 6.77620 129 ft 10 kts 143°
2026-05-06 12:03 51.28903 6.77653 128 ft 8 kts 207°
2026-05-06 12:04 51.28866 6.77578 130 ft 10 kts 234°
2026-05-06 12:04 51.28821 6.77478 130 ft 12 kts 234°
2026-05-06 12:04 51.28766 6.77357 129 ft 15 kts 233°
2026-05-06 12:04 51.28696 6.77211 128 ft 18 kts 233°
2026-05-06 12:05 51.28610 6.77030 129 ft 23 kts 232°
2026-05-06 12:05 51.28521 6.76843 126 ft 22 kts 233°
2026-05-06 12:05 51.28434 6.76659 126 ft 19 kts 232°
2026-05-06 12:05 51.28363 6.76513 126 ft 12 kts 230°
2026-05-06 12:06 51.28294 6.76500 126 ft 10 kts 167°
2026-05-06 12:06 51.28237 6.76447 127 ft 9 kts 213°
2026-05-06 12:06 51.28177 6.76430 128 ft 9 kts 187°
2026-05-06 12:06 51.28119 6.76435 125 ft 7 kts 145°
2026-05-06 12:07 51.28111 6.76489 127 ft 6 kts 88°
2026-05-06 12:07 51.28109 6.76537 127 ft 1 kts 94°
2026-05-06 12:07 51.28109 6.76542 127 ft 0 kts 95°